{"data":{"norad_id":37810,"intl_designator":"2011-049B","name":"ARABSAT-5C","alt_names":[],"object_type":"PAYLOAD","status":"ACTIVE","operator":null,"country":"AB","launch_date":"2011-09-21","launch_site_code":"FRGUI","launch_vehicle":null,"mission":null,"orbit_class":"UNKNOWN","rcs_meters":11.148,"size_class":null,"mass_kg":null,"dimensions":null,"purposes":["comms"],"wikipedia_slug":null,"has_3d_model":false,"image_url":null,"decayed_at":null,"tle_current":{"epoch":"2026-09-19T23:54:33.901344Z","epoch_age_seconds":65541,"freshness":"FRESH","line1":"1 37810U 11049B   26262.99622571  .00000119  00000+0  00000+0 0  9992","line2":"2 37810   0.0556   1.5106 0003889 187.5510 188.4849  1.00270425 54984","mean_motion":1.00270425,"eccentricity":0.0003889,"inclination_deg":0.0556,"raan_deg":1.5106,"arg_perigee_deg":187.551,"mean_anomaly_deg":188.4849,"bstar":0,"rev_number":5498,"period_min":1436.1163822732,"perigee_km":35770.578210337,"apogee_km":35803.374235402,"semimajor_km":42165.113222869,"source":"CELESTRAK","updated_at":"2026-09-20T09:00:35.170371Z"}}}